Probability
0 0 0 0 0 0 0 0 0 0 0 0 0 0 0 0 0 0 0 0 0 0 0 0 0 0 0 0 0 0 0 0 0 0 0 0 0 0
0 0 0 0 0 0 0 0 0 0 0 0 0 0 0 0 0 0 0 0 0 0 0 0 0 0 0 0 0 0 0 0 0 0 0 0 0 0
0 0 0 0 0 0 0 0 0 0 0 0 0 0 0 0 0 0 0 0 0 0 0 0 0 0 0 0 0 0 0 0 0 0 0 0 0 0
0 0 0 0 0 0 0 0 0 0 0 0 0 0 0 0 0 0 0 0 0 0 0 0 0 0 0 0 0 0 0 0 0 0 0 0 0 0
0 0 0 0 0 0 0 0 0 0 0 0 0 0 0 0 0 0 0 0 0 0 0 0 0 0 0 0 0 0 0 0 0 0 0 0 0 0
0 0 0 0 0 0 0 0 0 0 0 0 0 0 0 0 0 0 0 0 0 0 0 0 0 0 0 0 0 0 0 0 0 0 0 0 0 0
0 0 0 0 0 0 0 0 0 0 0 0 0 0 0 0 0 0 0 0 0 0 0 0 0 0 0 0 0 0 0 0 0 0 0 0 0 0
0 0 0 0 0 0 0 0 0 0 0 0 0 0 0 0 0 0 0 0 0 0 0 0 0 0 0 0 0 0 0 0 0 0 0 0 0 0
0 0 0 0 0 0 0 0 0 0 0 0 0 0 0 0 0 0 0 0 0 0 0 0 0 0 0 0 0 0 0 0 0 0 0 0 0 0
0 0 0 0 0 0 0 0 0 0 0 0 0 0 0 0 0 0 0 0 0 0 0 0 0 0 0 0 0 0 0 0 0 0 0 0 0 0
0 0 0 0 0 0 0 0 0 0 0 0 0 0 0 0 0 0 0 0 0 0 0 0 0 0 0 0 0 0 0 0 0 0 0 0 0 0
0 0 0 0 0 0 0 0 0 0 0 0 0 0 0 0 0 0 0 0 0 0 0 0 0 0 0 0 0 0 0 0 0 0 0 0 0 0
0 0 0 0 0 0 0 0 0 0 0 0 0 0 0 0 0 0 0 0 0 0 0 0 0 0 0 0 0 0 0 0 0 0 0 0 0 0
0 0 0 0 0 0 0 0 0 0 0 0 0 0 0 0 0 0 0 0 0 0 0 0 0 0 0 0 0 0 0 0 0 0 0 0 0 0
0 0 0 0 0 0 0 0 0 0 0 0 0 0 0 0 0 0 0 0 0 0 0 0 0 0 0 0 0 0 0 0 0 0 0 0 0 0
0 0 0 0 0 0 0 0 0 0 0 0 0 0 0 0 0 0 0 0 0 0 0 0 0 0 0 0 0 0 0 0 0 0 0 0 0 0
0 0 0 0 0 0 0 0 0 0 0 0 0 0 0 0 0 0 0 0 0 0 0 0 0 0 0 0 0 0 0 0 0 0 0 0 0 0
0 0 0 0 0 0 0 0 0 0 0 0 0 0 0 0 0 0 0 0 0 0 0 0 0 0 0 0 0 0 0 0 0 0 0 0 0 0
0 0 0 0 0 0 0 0 0 0 0 0 0 0 0 0 0 0 0 0 0 0 0 0 0 0 0 0 0 0 0 0 0 0 0 0 0 0
0 0 0 0 0 0 0 0 0 0 0 0 0 0 0 0 0 0 0 0 0 0 0 0 0 0 0 0 0 0 0 0 0 0 0 0 0 0
0 0 0 0 0 0 0 0 0 0 0 0 0 0 0 0 0 0 0 0 0 0 0 0 0 0 0 0 0 0 0 0 0 0 0 0 0 0
0 0 0 0 0 0 0 0 0 0 0 0 0 0 0 0 0 0 0 0 0 0 0 0 0 0 0 0 0 0 0 0 0 0 0 0 0 0
0 0 0 0 0 0 0 0 0 0 0 0 0 0 0 0 0 0 0 0 0 0 0 0 0 0 0 0 0 0 0 0 0 0 0 0 0 0
Wind_Speed
2 2 2 2 2 3 3 4 4 3 2 2 1 1 2 2 3 2 3 8 9 9 8 9 9 9 9 8 8 8 8 8 8 8 8 7 7 7
2 2 2 2 1 2 3 3 3 4 3 1 1 2 3 3 5 3 4 9 9 9 9 9 9 9 9 9 9 9 9 9 9 9 8 8 8 7
1 1 2 2 1 2 2 2 3 3 3 1 1 2 3 3 4 4 4 3 5 9 9 9 9 9 9 9 9 9 10 9 9 9 9 9 8 8
1 1 1 1 1 1 1 2 2 3 5 4 2 2 2 4 5 5 4 4 4 8 9 9 9 9 9 10 10 9 8 8 8 8 9 9 8 8
1 1 1 2 1 1 1 2 2 3 4 5 3 2 2 3 5 5 5 3 4 6 8 8 8 9 10 10 9 8 7 7 7 7 7 7 7 7
0 1 1 2 2 2 2 2 3 4 4 5 4 3 2 2 4 4 3 2 2 3 4 5 7 8 8 8 8 8 7 6 6 6 5 5 5 4
2 1 1 2 2 2 2 3 4 4 4 4 4 3 3 3 3 3 4 3 2 1 2 2 2 2 2 4 6 7 6 6 5 4 4 3 3 2
2 2 3 4 5 6 5 5 5 5 5 4 4 4 4 4 4 4 4 3 1 1 2 1 2 1 1 1 4 6 6 5 4 3 3 2 1 0
3 3 3 4 5 5 7 8 6 5 6 5 5 5 5 5 6 5 3 2 2 3 3 1 1 1 1 2 5 5 5 5 4 4 3 2 2 2
3 3 3 3 4 5 6 6 6 5 3 3 4 3 4 5 5 6 5 4 3 1 2 2 1 1 1 1 4 6 5 5 5 4 4 4 4 4
3 4 3 3 5 6 7 6 6 4 6 8 7 6 6 7 7 5 4 4 2 0 1 2 2 1 0 1 3 5 6 6 6 6 6 6 5 4
3 4 5 5 5 6 5 6 5 3 4 5 6 6 5 5 6 5 5 4 3 1 1 2 2 2 1 1 1 2 3 4 5 6 6 6 5 2
3 2 2 4 5 5 5 4 5 4 4 5 4 4 4 3 3 2 2 4 4 2 3 3 3 2 2 1 1 1 2 2 2 3 5 7 6 4
3 2 2 5 6 6 4 5 7 6 4 4 4 3 2 2 2 2 3 2 2 3 4 4 3 3 3 2 1 1 1 1 2 2 2 4 5 6
3 5 5 6 5 4 5 5 4 3 3 3 2 1 0 1 1 2 3 3 4 3 2 2 3 3 3 3 2 1 1 2 2 2 2 2 3 2
3 4 5 5 4 3 3 2 2 2 3 2 2 1 1 1 1 1 2 1 2 2 2 2 2 4 3 2 2 2 1 2 2 2 2 2 3 3
4 3 2 2 2 2 2 1 1 2 2 2 2 2 1 1 1 1 1 2 2 1 1 2 1 1 2 3 2 2 2 2 2 2 1 2 4 4
5 3 2 2 2 1 1 1 1 1 1 2 2 2 2 2 1 1 1 2 2 1 1 0 1 2 3 2 3 3 2 2 2 2 2 2 4 4
3 2 2 2 2 2 2 2 1 1 2 2 2 2 2 2 2 2 2 2 1 1 1 1 2 3 2 1 4 3 4 2 2 2 2 3 4 5
2 3 3 2 2 2 2 2 1 1 1 2 2 2 2 2 2 2 2 3 2 2 1 1 2 3 4 4 3 3 4 4 3 3 3 2 3 5
2 2 2 3 2 2 2 2 2 2 2 2 2 2 2 2 2 2 2 3 3 2 2 3 4 4 2 2 1 3 3 5 7 5 3 2 2 3
3 3 3 3 3 3 3 2 2 2 2 2 2 2 2 3 3 3 3 2 3 3 3 2 1 1 2 2 2 3 3 4 4 6 8 8 4 4
3 3 3 3 3 3 3 3 3 3 3 3 3 3 2 2 2 2 3 3 2 3 2 1 0 1 2 3 3 3 3 3 2 3 4 7 10 12
Wind_Direction
212 208 213 220 192 188 178 167 165 189 223 204 185 127 123 104 113 124 126 129 130 125 122 120 117 113 109 108 105 106 103 100 98 98 100 98 94 91
215 199 207 219 202 182 182 184 175 174 198 197 181 151 136 128 114 103 114 120 120 122 121 120 119 118 115 111 109 108 106 104 102 100 98 96 93 91
243 204 219 201 201 202 186 184 178 161 167 164 124 128 124 128 114 103 99 100 110 115 117 117 118 117 116 115 114 112 111 109 106 104 100 95 91 90
236 207 230 193 188 199 179 180 178 165 154 157 147 141 131 137 125 118 113 108 105 114 119 122 123 124 122 120 117 115 113 110 108 105 102 98 95 91
197 191 207 167 185 193 173 163 159 144 136 147 148 129 118 130 119 110 104 96 107 113 114 120 126 126 124 121 119 116 114 112 109 106 103 99 96 91
121 158 168 165 187 176 155 150 139 132 130 138 138 132 124 123 125 128 117 95 104 105 105 112 119 122 128 130 129 125 121 120 118 115 110 105 99 93
64 59 73 104 127 145 150 152 144 138 136 137 138 136 142 148 152 140 132 120 75 101 109 106 107 101 126 143 145 144 139 137 134 131 126 121 109 91
81 62 62 65 78 85 100 119 134 144 150 146 148 157 161 151 136 140 141 140 158 175 128 118 117 131 188 184 168 159 157 155 153 150 147 150 150 327
74 68 69 65 71 80 77 77 84 114 138 150 155 165 164 166 152 149 154 144 160 168 132 147 161 181 216 183 181 183 183 185 187 189 194 211 234 268
65 73 87 72 74 93 91 76 63 57 80 112 140 153 155 159 163 158 149 118 82 82 134 151 183 202 212 204 205 201 204 209 216 226 235 243 251 261
62 63 81 85 89 99 99 94 78 60 67 86 94 106 124 138 140 126 127 127 113 156 159 146 170 167 178 232 229 217 220 225 235 242 248 255 259 267
64 54 64 88 100 104 111 114 107 95 91 84 76 72 84 108 126 144 153 147 135 161 202 149 151 140 154 268 229 220 227 244 252 253 255 259 261 252
99 70 56 92 102 102 105 112 125 119 100 96 86 72 66 68 74 100 137 148 147 176 190 152 144 140 144 175 282 233 207 230 251 260 259 261 260 231
125 114 97 105 104 102 98 109 110 101 94 92 90 86 83 75 70 83 93 94 117 156 170 153 145 155 140 129 234 284 248 230 219 242 255 274 269 254
124 125 112 102 96 94 98 105 101 96 103 106 113 128 147 126 88 71 60 65 62 69 103 125 134 137 136 154 173 191 234 260 229 227 251 250 247 243
109 110 101 90 81 80 83 79 95 128 138 149 155 141 99 92 98 105 106 87 69 17 10 68 120 136 143 149 155 180 197 224 239 229 240 265 261 236
121 94 83 85 77 65 60 60 76 105 130 143 138 130 119 118 128 121 120 109 114 142 328 350 38 101 154 158 153 190 202 231 232 213 205 267 269 253
122 129 145 151 157 153 136 109 91 135 159 148 140 148 157 168 165 124 118 132 149 179 207 260 51 42 28 345 198 179 201 224 237 222 195 217 269 271
125 151 166 170 174 174 167 160 173 181 162 147 150 160 160 161 156 155 153 153 170 194 211 179 136 124 122 287 294 211 188 214 218 235 221 208 235 257
161 169 177 177 177 178 179 174 170 158 150 154 161 170 170 165 169 174 176 175 176 179 199 210 187 175 181 200 234 265 214 192 197 219 237 240 259 274
181 176 182 185 187 188 188 184 179 178 174 167 170 174 175 167 181 194 193 188 173 173 195 226 234 207 157 108 357 292 275 226 204 203 205 221 275 298
185 186 191 197 194 189 187 188 188 189 183 180 186 186 181 172 181 190 191 186 188 192 206 232 233 124 136 174 225 255 281 299 276 246 226 203 193 217
196 196 198 201 198 189 186 195 198 201 198 190 187 188 182 182 193 191 193 190 183 189 195 211 211 172 205 208 222 241 261 280 298 315 290 264 243 242